When you browse on this site, cookies collect data to enhance your experience and personalize the content and advertising you see.
Visit our Privacy Policy to learn more. By continuing to use the site, you agree to this use of cookies and data.
  • In Slovakia
  • List of Countries
  • For 7 days
  • Water Temperature
  • Satellite Maps
  • Weather Map
  • Weather Widgets
  • user-avatar
    Login

    Hourly Weather Gaborone

    Today, 17 December, Monday

    Time Temperature Precipitation Wind Pressure Humidity
    00:00 +29°C° 0.1 mm 2 mps 678 mmHg 30%
    01:00 +28°C° 0.1 mm 2 mps 678 mmHg 32%
    02:00 +27°C° 0 mm 1 mps 678 mmHg 32%
    03:00 +26°C° 0 mm 2 mps 678 mmHg 34%
    04:00 +26°C° 0 mm 2 mps 678 mmHg 36%
    05:00 +25°C° 0 mm 2 mps 678 mmHg 39%
    06:00 +27°C° 0 mm 3 mps 679 mmHg 38%
    07:00 +28°C° 0 mm 4 mps 679 mmHg 38%
    08:00 +30°C° 0 mm 5 mps 680 mmHg 39%
    09:00 +33°C° 0 mm 4 mps 680 mmHg 34%
    10:00 +35°C° 0 mm 4 mps 680 mmHg 29%
    11:00 +36°C° 0 mm 4 mps 680 mmHg 23%
    12:00 +37°C° 0 mm 4 mps 680 mmHg 21%
    13:00 +38°C° 0 mm 3 mps 679 mmHg 19%
    14:00 +38°C° 0 mm 2 mps 679 mmHg 20%
    15:00 +38°C° 0 mm 3 mps 678 mmHg 20%
    16:00 +38°C° 0 mm 3 mps 678 mmHg 20%
    17:00 +38°C° 0 mm 3 mps 678 mmHg 20%
    18:00 +36°C° 0 mm 2 mps 677 mmHg 22%
    19:00 +35°C° 0 mm 2 mps 677 mmHg 24%
    20:00 +32°C° 0 mm 2 mps 677 mmHg 27%
    21:00 +31°C° 0.2 mm 2 mps 677 mmHg 30%
    22:00 +30°C° 0.2 mm 2 mps 677 mmHg 33%
    23:00 +29°C° 0.2 mm 2 mps 677 mmHg 36%

    Tomorrow, 18 December, Tuesday

    Time Temperature Precipitation Wind Pressure Humidity
    00:00 +28°C° 0 mm 2 mps 677 mmHg 39%
    01:00 +28°C° 0 mm 1 mps 677 mmHg 41%
    02:00 +27°C° 0 mm 1 mps 676 mmHg 43%
    03:00 +27°C° 0 mm 1 mps 676 mmHg 44%
    04:00 +26°C° 0 mm 1 mps 676 mmHg 46%
    05:00 +26°C° 0 mm 1 mps 676 mmHg 47%
    06:00 +27°C° 0 mm 2 mps 677 mmHg 43%
    07:00 +29°C° 0 mm 3 mps 678 mmHg 39%
    08:00 +32°C° 0 mm 4 mps 678 mmHg 34%
    09:00 +34°C° 0 mm 4 mps 678 mmHg 31%
    10:00 +35°C° 0 mm 3 mps 678 mmHg 27%
    11:00 +37°C° 0 mm 3 mps 678 mmHg 24%
    12:00 +38°C° 0 mm 2 mps 678 mmHg 21%
    13:00 +39°C° 0 mm 2 mps 677 mmHg 19%
    14:00 +40°C° 0 mm 2 mps 677 mmHg 17%
    15:00 +39°C° 0 mm 2 mps 676 mmHg 17%
    16:00 +39°C° 0 mm 1 mps 676 mmHg 18%
    17:00 +37°C° 0 mm 1 mps 675 mmHg 18%
    18:00 +36°C° 0 mm 1 mps 675 mmHg 20%
    19:00 +34°C° 0 mm 1 mps 675 mmHg 22%
    20:00 +33°C° 0 mm 1 mps 674 mmHg 24%
    21:00 +32°C° 0.1 mm 1 mps 675 mmHg 26%
    22:00 +31°C° 0.1 mm 1 mps 675 mmHg 28%
    23:00 +30°C° 0.1 mm 1 mps 675 mmHg 29%

    Day after tomorrow, 19 December, Wednesday

    Time Temperature Precipitation Wind Pressure Humidity
    00:00 +29°C° 0.1 mm 1 mps 675 mmHg 32%
    01:00 +28°C° 0.1 mm 1 mps 674 mmHg 35%
    02:00 +28°C° 0.1 mm 1 mps 674 mmHg 39%
    03:00 +27°C° 0.4 mm 1 mps 674 mmHg 42%
    04:00 +26°C° 0.4 mm 1 mps 674 mmHg 46%
    05:00 +25°C° 0.4 mm 1 mps 674 mmHg 50%
    06:00 +27°C° 0.1 mm 2 mps 675 mmHg 45%
    07:00 +29°C° 0.1 mm 2 mps 675 mmHg 40%
    08:00 +31°C° 0.1 mm 3 mps 676 mmHg 35%
    09:00 +34°C° 0 mm 3 mps 676 mmHg 30%
    10:00 +35°C° 0 mm 3 mps 676 mmHg 25%
    11:00 +37°C° 0 mm 3 mps 676 mmHg 21%
    12:00 +38°C° 0 mm 3 mps 676 mmHg 19%
    13:00 +39°C° 0 mm 3 mps 675 mmHg 18%
    14:00 +40°C° 0 mm 3 mps 675 mmHg 16%
    15:00 +40°C° 0 mm 3 mps 675 mmHg 16%
    16:00 +40°C° 0 mm 3 mps 674 mmHg 16%
    17:00 +40°C° 0 mm 3 mps 674 mmHg 17%
    18:00 +38°C° 0 mm 2 mps 674 mmHg 19%
    19:00 +37°C° 0 mm 2 mps 674 mmHg 21%
    20:00 +35°C° 0 mm 2 mps 674 mmHg 23%
    21:00 +35°C° 0 mm 2 mps 674 mmHg 24%
    22:00 +34°C° 0 mm 2 mps 674 mmHg 26%
    23:00 +32°C° 0 mm 2 mps 675 mmHg 28%

    20 December, Thursday

    Time Temperature Precipitation Wind Pressure Humidity
    00:00 +32°C° 0 mm 2 mps 674 mmHg 28%
    01:00 +31°C° 0 mm 2 mps 674 mmHg 29%
    02:00 +30°C° 0 mm 2 mps 674 mmHg 30%
    03:00 +29°C° 0 mm 2 mps 674 mmHg 28%
    04:00 +29°C° 0 mm 2 mps 674 mmHg 27%
    05:00 +28°C° 0 mm 2 mps 674 mmHg 25%
    06:00 +29°C° 0 mm 2 mps 675 mmHg 21%
    07:00 +31°C° 0 mm 3 mps 676 mmHg 17%
    08:00 +34°C° 0 mm 4 mps 677 mmHg 13%
    09:00 +36°C° 0 mm 3 mps 677 mmHg 14%
    10:00 +37°C° 0 mm 3 mps 677 mmHg 14%
    11:00 +39°C° 0 mm 3 mps 677 mmHg 14%
    12:00 +40°C° 0 mm 2 mps 676 mmHg 13%
    13:00 +41°C° 0 mm 2 mps 676 mmHg 13%
    14:00 +43°C° 0 mm 1 mps 676 mmHg 12%
    15:00 +42°C° 0 mm 1 mps 675 mmHg 12%
    16:00 +41°C° 0 mm 1 mps 675 mmHg 12%
    17:00 +41°C° 0 mm 1 mps 674 mmHg 12%
    18:00 +39°C° 0 mm 2 mps 674 mmHg 15%
    19:00 +37°C° 0 mm 2 mps 674 mmHg 18%
    20:00 +36°C° 0 mm 2 mps 674 mmHg 20%
    21:00 +35°C° 0 mm 2 mps 675 mmHg 22%
    22:00 +33°C° 0 mm 1 mps 675 mmHg 25%
    23:00 +32°C° 0 mm 1 mps 675 mmHg 27%

    21 December, Friday

    Time Temperature Precipitation Wind Pressure Humidity
    00:00 +31°C° 0.3 mm 3 mps 675 mmHg 36%
    01:00 +30°C° 0.3 mm 4 mps 675 mmHg 46%
    02:00 +29°C° 0.3 mm 5 mps 675 mmHg 56%
    03:00 +28°C° 0.5 mm 5 mps 675 mmHg 61%
    04:00 +27°C° 0.5 mm 4 mps 675 mmHg 66%
    05:00 +26°C° 0.5 mm 3 mps 676 mmHg 70%
    06:00 +27°C° 0.4 mm 4 mps 676 mmHg 68%
    07:00 +27°C° 0.4 mm 5 mps 677 mmHg 66%
    08:00 +28°C° 0.4 mm 6 mps 678 mmHg 63%
    09:00 +30°C° 0 mm 6 mps 678 mmHg 57%
    10:00 +32°C° 0 mm 6 mps 678 mmHg 51%
    11:00 +34°C° 0 mm 6 mps 678 mmHg 45%
    12:00 +35°C° 0 mm 6 mps 677 mmHg 42%
    13:00 +36°C° 0 mm 6 mps 677 mmHg 39%
    14:00 +38°C° 0 mm 6 mps 676 mmHg 35%
    15:00 +38°C° 0 mm 6 mps 676 mmHg 34%
    16:00 +37°C° 0 mm 5 mps 675 mmHg 32%
    17:00 +37°C° 0 mm 5 mps 675 mmHg 31%
    18:00 +36°C° 0 mm 4 mps 675 mmHg 34%
    19:00 +34°C° 0 mm 4 mps 675 mmHg 37%
    20:00 +33°C° 0 mm 3 mps 675 mmHg 40%
    21:00 +29°C° 2 mm 4 mps 676 mmHg 50%
    22:00 +27°C° 2 mm 5 mps 676 mmHg 61%
    23:00 +24°C° 2 mm 6 mps 676 mmHg 71%

    22 December, Saturday

    Time Temperature Precipitation Wind Pressure Humidity
    00:00 +25°C° 0.2 mm 5 mps 676 mmHg 70%
    01:00 +25°C° 0.2 mm 5 mps 676 mmHg 69%
    02:00 +23°C° 0.2 mm 4 mps 675 mmHg 68%
    03:00 +24°C° 0.6 mm 3 mps 675 mmHg 69%
    04:00 +24°C° 0.6 mm 3 mps 676 mmHg 71%
    05:00 +24°C° 0.6 mm 2 mps 676 mmHg 73%
    06:00 +25°C° 0.1 mm 3 mps 676 mmHg 70%
    07:00 +26°C° 0.1 mm 3 mps 677 mmHg 67%
    08:00 +27°C° 0.1 mm 4 mps 677 mmHg 64%
    09:00 +29°C° 0 mm 4 mps 677 mmHg 56%
    10:00 +30°C° 0 mm 3 mps 677 mmHg 48%
    11:00 +33°C° 0 mm 3 mps 677 mmHg 40%
    12:00 +35°C° 0 mm 2 mps 676 mmHg 35%
    13:00 +37°C° 0 mm 2 mps 676 mmHg 31%
    14:00 +37°C° 0 mm 1 mps 675 mmHg 26%
    15:00 +37°C° 0 mm 1 mps 675 mmHg 26%
    16:00 +36°C° 0 mm 1 mps 674 mmHg 26%
    17:00 +36°C° 0 mm 1 mps 674 mmHg 26%
    18:00 +35°C° 0 mm 1 mps 674 mmHg 29%
    19:00 +34°C° 0 mm 1 mps 674 mmHg 32%
    20:00 +32°C° 0 mm 1 mps 674 mmHg 35%
    21:00 +32°C° 0 mm 1 mps 674 mmHg 37%
    22:00 +31°C° 0 mm 1 mps 674 mmHg 39%
    23:00 +30°C° 0 mm 1 mps 674 mmHg 40%
    Show more